Weather History for Perth, WE

Change the Weather History Date:

Monday, December 30, 2013

  Actual Average Record
Temperature  
Mean Temperature 77 °F -  
Max Temperature 90 °F 89 °F 106 °F (2014)
Min Temperature 64 °F 63 °F 50 °F (2000)
Cooling Degree Days 12    
Growing Degree Days 27 (Base 50)    
Moisture  
Dew Point 57 °F    
Average Humidity 50    
Maximum Humidity 78    
Minimum Humidity 22    
Precipitation  
Precipitation 0.00 in 0.01 in - ()
Sea Level Pressure  
Sea Level Pressure 29.72 in    
Wind  
Wind Speed 8 mph ()    
Max Wind Speed 16 mph    
Max Gust Speed -    
Visibility 17.2 miles    
Events      
Averages and records for this station are not official NWS values.
T = Trace of Precipitation, MM = Missing Value Source: Averaged Metar Reports

Daily Weather History Graph

Daily Weather History Graph

Search for Another Location

Airport:

Trip Planner

Search our weather history database for the weather conditions in past years. The results will help you decide how hot, cold, wet, or windy it might be!

Date:

Astronomy

Dec. 30, 2013 Rise Set
Actual Time 5:12 AM AWST 7:24 PM AWST
Civil Twilight 4:43 AM AWST 7:53 PM AWST
Nautical Twilight 4:09 AM AWST 8:27 PM AWST
Astronomical Twilight 3:32 AM AWST 9:04 PM AWST
Moon 2:52 AM AWST 5:02 PM AWST
Length of Visible Light 15h 09m
Length of Day
14h 12m
Waning Crescent, 8% of the Moon is Illuminated
Dec 30
Waning Crescent
Jan 1
New
Jan 8
First Quarter
Jan 16
Full
Jan 24
Last Quarter

Hourly Weather History & Observations

Time (AWST) Temp. Heat Index Dew Point Humidity Pressure Visibility Wind Dir Wind Speed Gust Speed Precip Events Conditions
12:00 AM 70 °F - 60 °F 62% 29.75 in 19 mi South 8.1 mph - -   Partly Cloudy
12:00 AM 69.8 °F - 60.8 °F 73% 29.74 in - South 8.1 mph - N/A   Clear
12:30 AM 69.8 °F - 59.0 °F 68% 29.74 in - South 8.1 mph - N/A   Clear
1:00 AM 71.6 °F - 55.4 °F 57% 29.74 in - SSE 10.4 mph - N/A   Clear
1:30 AM 73.4 °F - 53.6 °F 50% 29.74 in - SSE 9.2 mph - N/A   Clear
2:00 AM 72 °F - 52 °F 38% 29.73 in - SSE 9.2 mph - -  
2:00 AM 71.6 °F - 51.8 °F 50% 29.71 in - SSE 9.2 mph - N/A   Clear
2:30 AM 69.8 °F - 53.6 °F 56% 29.74 in - SSE 9.2 mph - N/A   Clear
3:00 AM 70 °F - 52 °F 42% 29.74 in 19 mi SE 6.9 mph - -   Partly Cloudy
3:00 AM 69.8 °F - 51.8 °F 53% 29.74 in - SE 6.9 mph - N/A   Clear
3:30 AM 68.0 °F - 51.8 °F 56% 29.74 in - SE 8.1 mph - N/A   Clear
4:00 AM 68.0 °F - 53.6 °F 60% 29.74 in - SE 8.1 mph - N/A   Clear
4:30 AM 66.2 °F - 51.8 °F 60% 29.74 in - ESE 8.1 mph - N/A   Clear
5:00 AM 66 °F - 53 °F 53% 29.76 in - SSE 6.9 mph - -  
5:00 AM 66.2 °F - 53.6 °F 64% 29.74 in - SSE 6.9 mph - N/A   Clear
5:30 AM 66.2 °F - 53.6 °F 64% 29.74 in - SSE 5.8 mph - N/A   Clear
6:00 AM 67 °F - 53 °F 52% 29.76 in 19 mi ESE 5.8 mph - -   Partly Cloudy
6:00 AM 68.0 °F - 53.6 °F 60% 29.74 in - ESE 5.8 mph - N/A   Clear
6:30 AM 69.8 °F - 53.6 °F 56% 29.77 in - ESE 5.8 mph - N/A   Clear
7:00 AM 69.8 °F - 53.6 °F 56% 29.77 in - East 5.8 mph - N/A   Clear
7:30 AM 71.6 °F - 53.6 °F 53% 29.77 in - ESE 6.9 mph - N/A   Clear
8:00 AM 74 °F - 54 °F 40% 29.77 in - ESE 6.9 mph - -  
8:00 AM 73.4 °F - 55.4 °F 53% 29.77 in - ESE 6.9 mph - N/A   Clear
8:30 AM 77.0 °F - 55.4 °F 47% 29.77 in - East 5.8 mph - N/A   Clear
9:00 AM 77 °F - 55 °F 35% 29.76 in 19 mi ENE 10.4 mph - -   Partly Cloudy
9:00 AM 77.0 °F - 55.4 °F 47% 29.74 in - ENE 10.4 mph - N/A   Clear
9:30 AM 80.6 °F 80.5 °F 55.4 °F 42% 29.74 in - ESE 6.9 mph - N/A   Clear
10:00 AM 82.4 °F 82.0 °F 57.2 °F 42% 29.74 in - ESE 5.8 mph - N/A   Clear
10:30 AM 84.2 °F 83.5 °F 57.2 °F 40% 29.74 in - South 4.6 mph - N/A   Clear
11:00 AM 87 °F - 56 °F 24% 29.74 in - West 4.6 mph - -  
11:00 AM 86.0 °F 84.5 °F 55.4 °F 35% 29.74 in - West 4.6 mph - N/A   Clear
11:30 AM 87.8 °F 86.1 °F 55.4 °F 33% 29.74 in - West 8.1 mph - N/A   Clear
12:00 PM 89 °F - 56 °F 22% 29.73 in 19 mi West 8.1 mph - -   Partly Cloudy
12:00 PM 89.6 °F 87.7 °F 55.4 °F 31% 29.71 in - West 8.1 mph - N/A   Clear
12:30 PM 87.8 °F 87.1 °F 59.0 °F 38% 29.71 in - West 13.8 mph - N/A   Clear
1:00 PM 86.0 °F 84.9 °F 57.2 °F 37% 29.71 in - West 15.0 mph - N/A   Clear
1:30 PM 86.0 °F 84.9 °F 57.2 °F 37% 29.71 in - WSW 15.0 mph - N/A   Clear
2:00 PM 86 °F - 57 °F 27% 29.70 in - SW 16.1 mph - -  
2:00 PM 86.0 °F 84.9 °F 57.2 °F 37% 29.68 in - SW 16.1 mph - N/A   Clear
2:30 PM 84.2 °F 83.5 °F 57.2 °F 40% 29.68 in - West 16.1 mph - N/A   Clear
3:00 PM 83 °F - 58 °F 32% 29.69 in 19 mi West 16.1 mph - -   Partly Cloudy
3:00 PM 82.4 °F 82.0 °F 57.2 °F 42% 29.68 in - West 16.1 mph - N/A   Clear
3:30 PM 84.2 °F 83.5 °F 57.2 °F 40% 29.68 in - WSW 12.7 mph - N/A   Clear
4:00 PM 82.4 °F 82.5 °F 59.0 °F 45% 29.68 in - West 13.8 mph - N/A   Clear
4:30 PM 82.4 °F 82.5 °F 59.0 °F 45% 29.65 in - West 16.1 mph - N/A   Clear
5:00 PM 83 °F - 58 °F 32% 29.66 in - WSW 13.8 mph - -  
5:00 PM 82.4 °F 82.5 °F 59.0 °F 45% 29.65 in - WSW 13.8 mph - N/A   Clear
5:30 PM 84.2 °F 83.5 °F 57.2 °F 40% 29.65 in - WSW 12.7 mph - N/A   Clear
6:00 PM 82 °F - 56 °F 31% 29.68 in 19 mi SW 15.0 mph - -   Partly Cloudy
6:00 PM 82.4 °F 82.0 °F 57.2 °F 42% 29.65 in - SW 15.0 mph - N/A   Clear
6:30 PM 78.8 °F - 55.4 °F 44% 29.68 in - SW 15.0 mph - N/A   Clear
7:00 PM 77.0 °F - 60.8 °F 57% 29.68 in - WSW 13.8 mph - N/A   Clear
7:30 PM 73.4 °F - 60.8 °F 65% 29.68 in - SW 10.4 mph - N/A   Clear
8:00 PM 73 °F - 62 °F 60% 29.72 in - WSW 9.2 mph - -  
8:00 PM 73.4 °F - 62.6 °F 69% 29.71 in - WSW 9.2 mph - N/A   Clear
8:30 PM 71.6 °F - 62.6 °F 73% 29.71 in - SW 9.2 mph - N/A   Clear
9:00 PM 72 °F - 63 °F 65% 29.73 in 16 mi WSW 8.1 mph - -   Partly Cloudy
9:00 PM 71.6 °F - 62.6 °F 73% 29.71 in - WSW 8.1 mph - N/A   Clear
9:30 PM 71.6 °F - 62.6 °F 73% 29.71 in - SW 8.1 mph - N/A   Clear
10:00 PM 71.6 °F - 62.6 °F 73% 29.71 in - SSW 6.9 mph - N/A   Clear
10:30 PM 69.8 °F - 60.8 °F 73% 29.71 in - SSW 6.9 mph - N/A   Clear
11:00 PM 70 °F - 61 °F 67% 29.71 in - SSW 6.9 mph - -  
11:00 PM 69.8 °F - 60.8 °F 73% 29.71 in - SSW 6.9 mph - N/A   Clear
11:30 PM 69.8 °F - 62.6 °F 78% 29.71 in 6.2 mi SSW 6.9 mph - N/A   Partly Cloudy